Charleston, SC

12:13 PM EDT on April 23, 2017 (GMT -0400)
Charleston Air Force Base-International

Weather History for KCHS - December, 2013

Change the Weather History Date:

Tuesday, December 3, 2013

  Actual Average Record
Temperature  
Mean Temperature 58 °F 54 °F  
Max Temperature 71 °F 65 °F 79 °F (1982)
Min Temperature 45 °F 43 °F 17 °F (1960)
Degree Days  
Heating Degree Days 7 12  
Month to date heating degree days 24 34  
Since 1 July heating degree days 329 326  
Cooling Degree Days 0 0  
Month to date cooling degree days 0 0  
Year to date cooling degree days 2429 2297  
Growing Degree Days 8 (Base 50)    
Moisture  
Dew Point 49 °F    
Average Humidity 70    
Maximum Humidity 93    
Minimum Humidity 47    
Precipitation  
Precipitation T in 0.09 in 1.77 in (1968)
Month to date precipitation T 0.27  
Year to date precipitation 55.96 48.19  
Sea Level Pressure  
Sea Level Pressure 29.95 in    
Wind  
Wind Speed 4 mph (South)    
Max Wind Speed 14 mph    
Max Gust Speed 17 mph    
Visibility 9 miles    
Events Fog , Rain    
T = Trace of Precipitation, MM = Missing Value Source: NWS Daily Summary

Daily Weather History Graph

Daily Weather History Graph

Search for Another Location

Airport or City:

Trip Planner

Search our weather history database for the weather conditions in past years. The results will help you decide how hot, cold, wet, or windy it might be!

Date:

Astronomy

Dec. 03, 2013 Rise Set
Actual Time 7:06 AM EST 5:13 PM EST
Civil Twilight 6:39 AM EST 5:40 PM EST
Nautical Twilight 6:09 AM EST 6:10 PM EST
Astronomical Twilight 5:39 AM EST 6:40 PM EST
Moon 7:35 AM EST (12/3) 6:13 PM EST (12/3)
Length of Visible Light 11h 00m
Length of Day
10h 06m
New Moon, 1% of the Moon is Illuminated
Dec 3
New Moon
Dec 9
First Quarter
Dec 17
Full
Dec 25
Last Quarter
Jan 1
New

Hourly Weather History & Observations

Time (EST) Temp. Dew Point Humidity Pressure Visibility Wind Dir Wind Speed Gust Speed Precip Events Conditions
12:56 AM 46.9 °F 44.1 °F 90% 29.91 in 7.0 mi Calm Calm - N/A Fog Shallow Fog
1:56 AM 46.9 °F 44.1 °F 90% 29.91 in 7.0 mi Calm Calm - N/A Fog Shallow Fog
2:56 AM 46.0 °F 44.1 °F 93% 29.91 in 6.0 mi Calm Calm - N/A Fog Shallow Fog
3:56 AM 46.0 °F 43.0 °F 89% 29.90 in 8.0 mi Calm Calm - N/A   Mostly Cloudy
4:56 AM 48.9 °F 46.0 °F 90% 29.91 in 9.0 mi Calm Calm - N/A   Overcast
5:56 AM 50.0 °F 46.0 °F 86% 29.92 in 9.0 mi Calm Calm - N/A   Overcast
6:56 AM 51.1 °F 46.0 °F 83% 29.95 in 10.0 mi Calm Calm - N/A   Mostly Cloudy
7:56 AM 52.0 °F 46.9 °F 83% 29.95 in 8.0 mi Calm Calm - N/A   Mostly Cloudy
8:56 AM 57.0 °F 50.0 °F 77% 29.97 in 8.0 mi Calm Calm - N/A   Scattered Clouds
9:56 AM 62.1 °F 50.0 °F 65% 29.99 in 10.0 mi SSW 3.5 mph - N/A   Mostly Cloudy
10:56 AM 66.0 °F 46.0 °F 48% 29.99 in 10.0 mi SW 9.2 mph - N/A   Mostly Cloudy
11:56 AM 68.0 °F 48.0 °F 49% 29.98 in 10.0 mi SSW 8.1 mph - N/A   Mostly Cloudy
12:56 PM 70.0 °F 48.9 °F 47% 29.95 in 10.0 mi South 11.5 mph - N/A   Mostly Cloudy
1:56 PM 70.0 °F 48.9 °F 47% 29.94 in 10.0 mi South 10.4 mph 16.1 mph N/A   Mostly Cloudy
2:56 PM 66.9 °F 50.0 °F 54% 29.94 in 10.0 mi South 11.5 mph - N/A   Mostly Cloudy
3:56 PM 66.0 °F 50.0 °F 56% 29.94 in 10.0 mi SSW 9.2 mph - N/A   Mostly Cloudy
4:56 PM 64.0 °F 51.1 °F 63% 29.95 in 10.0 mi South 8.1 mph - N/A   Mostly Cloudy
5:56 PM 60.1 °F 52.0 °F 75% 29.96 in 10.0 mi SSE 6.9 mph - N/A   Mostly Cloudy
6:56 PM 60.1 °F 52.0 °F 75% 29.97 in 10.0 mi SE 4.6 mph - N/A   Mostly Cloudy
7:56 PM 61.0 °F 52.0 °F 72% 29.98 in 10.0 mi East 3.5 mph - 0.00 in Rain Light Rain
8:56 PM 60.1 °F 53.1 °F 78% 30.00 in 8.0 mi ESE 3.5 mph - 0.00 in Rain Light Rain
9:56 PM 57.9 °F 54.0 °F 87% 29.99 in 9.0 mi SE 4.6 mph - 0.00 in Rain Light Rain
10:56 PM 59.0 °F 54.0 °F 83% 29.99 in 8.0 mi Calm Calm - 0.00 in   Overcast
11:56 PM 59.0 °F 54.0 °F 83% 29.99 in 9.0 mi Calm Calm - N/A   Overcast